CAPE
19 33 31 2 2 2 0 0 0 0 0 1 4 3 2 4 11 2 2 1 1 9 2 0 0 16 1 0 0 0 2 0 0 0 4 0 12 44 28 6 4 8 1 3 7 13 10
42 15 22 31 3 2 1 0 0 0 0 1 2 7 3 4 9 1 1 0 1 4 0 0 0 2 0 0 0 0 0 0 0 0 0 0 4 3 16 48 0 0 11 0 0 3 10
5 46 39 19 19 4 1 0 0 0 0 1 1 3 3 3 4 2 0 0 0 0 0 0 0 0 0 0 0 0 0 0 0 7 0 0 0 2 7 11 1 6 5 0 0 0 0
6 7 4 63 32 15 2 0 0 0 0 1 1 0 0 1 2 1 0 0 0 0 0 0 0 0 0 0 0 0 0 9 1 13 3 0 0 0 5 11 0 0 0 1 1 0 2
12 8 5 0 44 24 5 1 0 0 0 0 1 0 0 0 4 2 0 0 0 0 0 0 0 0 0 0 0 0 0 1 0 0 0 0 0 0 14 20 3 0 0 1 1 0 11
8 5 5 3 3 32 25 3 1 0 1 0 1 0 0 0 0 1 0 0 0 0 0 0 0 0 0 0 0 0 0 0 0 0 0 0 0 0 6 1 0 0 0 0 0 0 13
6 8 5 11 2 4 32 4 3 0 1 0 0 0 0 0 0 0 0 0 0 0 0 0 0 0 0 0 0 0 0 0 0 0 0 0 0 0 0 0 0 1 4 0 0 0 1
2 1 1 2 11 2 5 1 3 0 0 0 0 0 0 0 0 0 0 0 0 0 0 0 0 0 0 0 0 0 0 0 0 0 0 0 0 0 0 0 0 0 0 0 0 0 0
8 0 0 2 9 7 2 5 3 1 0 0 0 0 0 0 0 0 0 0 0 0 0 0 0 0 0 0 0 0 0 0 0 0 0 0 0 0 0 0 0 0 0 0 0 0 0
5 7 0 2 7 10 1 3 3 1 0 0 0 0 0 0 0 0 0 0 0 0 0 0 0 0 0 0 0 0 0 0 0 0 0 0 0 0 0 4 1 0 0 0 1 0 0
1 3 9 0 6 13 0 3 3 3 2 0 0 0 0 0 0 0 0 0 0 0 0 0 0 0 0 0 0 0 0 0 0 0 0 0 0 0 0 0 0 0 0 0 0 0 0
0 0 2 4 4 9 0 0 9 3 1 0 0 0 0 0 0 0 0 0 0 0 0 0 0 0 0 0 0 0 0 0 0 0 0 0 0 0 0 0 0 0 5 3 2 0 5
1 0 1 6 0 8 0 1 13 4 3 0 0 0 0 0 0 0 0 0 0 0 0 0 0 0 0 0 0 0 0 0 0 0 0 0 0 0 0 0 7 13 8 4 13 2 0
6 0 0 7 0 2 0 2 6 2 1 4 0 0 0 0 0 0 0 0 0 0 0 0 0 0 0 0 0 0 0 0 0 1 0 0 0 0 0 0 0 0 0 0 0 0 0
11 9 5 3 1 2 6 1 6 4 2 1 0 0 0 0 0 0 0 0 0 0 0 0 0 0 0 0 0 0 0 0 0 0 0 0 0 0 0 0 1 2 1 0 0 0 0
26 23 10 1 4 6 4 5 2 6 8 0 0 0 0 0 0 0 0 0 0 0 0 0 0 0 0 0 0 0 0 0 0 0 0 0 5 0 0 10 9 1 0 0 0 0 0
41 28 21 12 18 17 15 0 1 8 6 0 0 0 0 0 0 0 0 0 0 0 0 0 0 0 0 0 0 0 2 0 20 4 0 3 2 1 22 8 0 0 0 0 0 0 0
33 33 28 20 29 4 27 2 4 9 0 0 0 0 0 0 0 0 0 0 0 0 0 0 0 0 0 0 0 0 0 9 43 49 43 14 20 5 0 0 0 13 3 5 0 0 0
68 36 25 26 24 11 13 3 12 4 5 0 0 0 0 0 0 0 0 0 0 0 0 0 0 0 0 0 0 0 0 0 0 12 22 29 0 0 0 2 1 3 5 7 0 0 0
55 57 41 21 0 23 3 9 10 1 10 0 0 0 0 5 0 0 0 0 0 0 0 0 0 0 0 0 0 0 0 0 0 0 0 2 0 0 0 0 0 0 2 8 8 0 0
23 38 6 12 21 14 10 22 3 1 0 0 0 0 0 0 0 0 0 0 0 0 0 0 0 0 0 0 0 0 0 0 0 0 0 7 0 1 0 0 0 0 0 0 0 0 0
26 11 15 40 24 5 34 37 4 0 0 0 0 0 0 0 0 0 0 0 0 0 0 0 0 0 0 0 0 0 0 0 0 0 0 0 1 0 0 0 0 0 0 0 0 0 2
10 10 42 31 27 17 11 15 4 0 0 0 0 0 0 0 0 0 0 0 0 0 0 0 0 0 0 0 0 0 0 0 0 0 0 0 0 0 0 0 1 0 0 0 0 0 0
15 27 29 20 0 2 4 4 4 4 0 0 0 0 0 0 0 0 0 0 0 0 0 0 0 0 0 0 0 0 0 0 0 0 0 0 0 0 0 0 0 0 0 0 0 0 0
23 31 18 1 12 0 5 3 4 0 0 0 0 0 0 0 0 0 0 0 0 0 0 0 0 0 0 0 0 0 0 0 0 0 0 0 0 0 0 0 0 0 0 0 0 0 0
10 10 2 2 4 0 10 2 1 0 0 0 0 0 0 0 0 0 0 0 0 0 0 0 0 0 0 0 0 0 0 0 0 0 0 0 0 0 0 0 0 0 0 0 0 0 0
11 2 0 0 0 0 13 2 4 0 0 0 0 0 0 0 0 0 0 0 0 0 0 0 0 0 0 0 0 0 0 0 0 0 0 0 0 0 0 0 0 0 0 0 0 0 0
11 2 0 0 0 1 10 2 0 5 0 0 0 0 0 0 0 0 0 0 0 0 0 0 0 0 0 0 0 0 0 0 0 0 0 0 0 0 0 0 0 0 0 0 0 0 0
18 6 0 0 2 1 13 4 4 13 0 0 0 0 0 0 0 0 0 0 0 0 0 0 0 0 0 0 0 0 0 0 0 0 0 0 0 1 0 0 0 0 0 0 0 0 0
CIN
-5 -3 -2 0 0 0 0 0 0 0 0 0 0 -1 -1 0 0 -1 0 0 0 0 0 0 0 -37 -4 0 0 0 -14 0 0 0 -10 0 -22 -14 -65 -5 0 -19 -4 -61 -100 -117 -135
-220 -10 -16 -3 0 0 0 0 0 0 0 0 0 0 -2 0 0 0 0 0 0 0 0 0 0 -13 0 0 0 0 0 0 0 0 0 0 -25 -61 -24 -25 0 -2 -7 0 0 -120 -86
-2 0 -3 -17 -12 0 0 0 0 0 0 0 0 0 -1 0 0 0 0 0 0 0 0 0 0 0 0 0 0 0 0 0 0 -5 0 0 0 -46 -40 -9 -7 -12 -4 0 0 0 0
-1 -24 -31 -30 -11 -7 0 0 0 0 0 0 0 0 0 0 0 0 0 0 0 0 0 0 0 0 0 0 0 0 0 -18 -29 -44 -50 0 0 -39 -38 -22 0 0 0 0 0 0 -1
0 0 0 0 -46 -7 -1 0 0 0 0 0 0 0 0 0 0 0 0 0 0 0 0 0 0 0 0 0 0 0 0 -12 0 0 0 0 0 0 -39 -9 -6 -1 0 0 0 0 -3
0 0 0 0 0 -37 -11 0 0 0 0 0 0 0 0 0 0 0 0 0 0 0 0 0 0 0 0 0 0 0 0 0 0 0 0 0 0 0 -24 -5 0 0 0 0 0 0 -3
0 0 0 0 0 0 -46 0 0 0 0 0 0 0 0 0 0 0 0 0 0 0 0 0 0 0 0 0 0 0 0 0 0 0 0 0 0 0 0 0 0 -6 -69 -19 0 0 -10
-1 0 -1 0 0 0 0 0 0 0 0 0 0 0 0 0 0 0 0 0 0 0 0 0 0 0 0 0 0 0 0 0 0 0 0 0 0 0 0 0 0 -4 0 0 0 0 0
-1 0 0 -1 0 -1 0 0 0 0 0 0 0 0 0 0 0 0 0 0 0 0 0 0 0 0 0 0 0 0 0 0 0 0 0 0 0 0 0 0 0 0 0 0 0 -96 0
-1 -1 0 -1 0 0 0 0 0 0 0 0 0 0 0 0 0 0 0 0 0 0 0 0 0 0 0 0 0 0 0 0 0 0 0 0 0 0 0 -14 -6 0 0 0 -6 -1 0
-1 -1 -1 0 0 0 0 0 0 0 0 0 0 0 0 0 0 0 0 0 0 0 0 0 0 0 0 0 0 0 0 0 0 0 0 0 0 0 0 0 0 0 -4 -12 -2 -12 0
0 -1 -1 -1 0 0 0 0 0 0 0 0 0 0 0 0 0 0 0 0 0 0 0 0 0 0 0 0 0 0 0 0 0 0 0 0 0 0 0 0 -4 -8 -34 -20 -30 0 -10
-1 0 -1 0 0 0 0 0 0 0 0 0 0 0 0 0 0 0 0 0 0 0 0 0 0 0 0 0 0 0 0 0 0 0 0 0 0 0 0 -3 -25 -16 -27 -6 -6 -11 0
-1 -1 -1 0 0 -1 0 0 -1 0 0 0 0 0 0 0 0 0 0 0 0 0 0 0 0 0 0 0 0 0 0 0 0 -2 0 0 0 0 0 0 0 -2 0 0 0 0 0
-1 -1 0 -1 -1 0 -1 0 0 0 0 0 0 0 0 0 0 0 0 0 0 0 0 0 0 0 0 0 0 0 0 0 0 0 0 0 0 0 0 0 -11 -13 -9 0 0 0 0
-1 0 -1 0 0 -1 0 0 0 0 0 0 0 0 0 0 0 0 0 0 0 0 0 0 0 0 0 0 0 0 0 0 0 0 0 -4 -3 0 -1 -28 -36 -15 0 0 0 -1 0
-1 -1 -1 0 -21 -5 0 0 -1 0 0 0 0 0 0 0 0 0 0 0 0 0 0 0 0 0 0 0 0 0 -6 -3 -16 -21 -13 -17 -4 -11 -14 -5 0 -7 0 -10 0 0 0
-1 -6 -3 0 -34 -1 0 0 0 0 0 0 0 0 0 0 0 0 0 0 0 0 0 0 0 0 0 0 0 -1 0 -10 -25 -14 -3 -19 -6 -5 0 0 -24 -27 -16 -9 0 0 0
0 -3 -1 -24 -26 -2 0 -14 -1 0 0 0 0 -1 -1 -1 0 0 0 0 0 0 0 0 0 0 0 0 0 0 0 0 0 -23 -10 -24 -8 0 0 0 -6 -2 -2 -14 -2 0 0
-2 -1 -1 0 0 0 -4 0 0 0 -2 0 0 0 0 0 0 0 0 0 0 0 0 0 0 0 0 0 0 0 0 0 0 0 0 -10 0 0 0 0 0 0 -1 -2 -8 -4 0
-3 -5 -1 0 0 -3 -1 0 0 0 0 0 0 0 0 0 0 0 0 0 0 0 0 0 0 0 0 0 0 0 0 0 0 0 0 -14 -2 -4 0 0 0 0 0 0 -1 0 0
-3 -3 0 0 0 -2 -1 0 0 0 0 0 0 0 0 0 0 0 0 0 0 0 0 0 0 0 0 0 0 0 0 0 0 0 0 -1 -1 0 0 0 0 0 0 0 0 0 0
-5 0 0 0 0 0 -1 -7 0 0 0 0 0 0 0 0 0 0 0 0 0 0 0 0 0 0 0 0 0 0 0 0 0 0 0 0 0 0 0 0 0 0 0 0 0 0 -3
-4 -1 0 0 -3 0 0 -30 0 0 0 0 0 0 0 0 0 0 0 0 0 0 0 0 0 0 0 0 0 0 0 0 0 0 0 0 0 0 0 0 0 0 0 0 0 0 0
0 0 0 -1 -2 0 -1 -1 0 0 0 0 0 0 0 0 0 0 0 0 0 0 0 0 0 0 0 0 0 0 0 0 0 0 0 0 0 0 0 -1 0 0 0 0 0 0 0
-1 0 0 -4 0 0 -9 0 0 0 0 0 0 0 0 0 0 0 0 0 0 0 0 0 0 0 0 0 0 0 0 0 0 0 0 -1 -5 0 0 0 0 0 0 0 0 0 0
-1 0 0 -2 0 0 -15 0 0 0 0 0 0 0 0 0 0 0 0 0 0 0 0 0 0 0 0 0 0 0 0 0 0 0 0 0 0 0 0 0 0 0 0 0 0 0 0
-1 0 0 -3 0 0 -12 0 0 0 0 0 0 0 0 0 0 0 0 0 0 0 0 0 0 0 0 0 0 0 0 0 0 0 0 0 0 0 0 0 0 0 0 0 0 0 0
-1 0 0 0 0 0 -9 0 0 0 0 0 0 0 0 0 0 0 0 0 0 0 0 0 0 0 0 0 0 0 0 0 0 0 0 -1 0 -5 0 0 0 0 0 0 0 0 0
Wind_Speed
21 21 20 18 21 27 27 28 28 28 29 30 30 29 28 27 25 24 22 20 19 19 19 20 19 21 19 20 17 12 14 13 13 13 15 19 22 26 29 31 32 27 20 19 20 22 20
28 26 21 19 18 21 27 26 27 28 28 29 30 29 27 25 24 22 19 18 17 17 17 19 20 20 24 28 7 10 12 14 15 16 16 19 22 21 28 29 37 20 15 17 18 22 21
38 36 30 27 19 19 22 26 25 26 27 27 29 28 27 25 23 19 16 15 15 15 15 17 19 22 25 25 6 8 10 15 16 20 15 19 19 20 24 26 23 29 21 17 21 20 24
40 41 41 35 23 16 18 22 24 24 24 26 27 27 26 24 21 18 13 12 12 13 13 15 16 21 24 15 8 7 7 10 17 17 20 18 19 21 23 21 26 33 27 26 26 22 24
43 43 43 42 37 19 15 17 23 23 24 24 25 26 24 22 20 17 11 8 9 11 13 14 20 21 23 13 8 7 11 14 13 16 18 20 19 18 19 27 28 28 39 33 28 22 23
45 45 45 44 43 35 17 17 20 24 23 23 23 24 24 21 19 17 10 7 11 15 18 18 19 22 20 20 14 10 12 13 14 14 18 17 14 18 20 30 38 34 35 31 35 29 28
46 47 47 45 44 43 24 16 14 23 22 22 23 23 22 21 19 18 18 16 17 20 24 26 23 22 18 14 16 8 12 14 14 12 11 11 9 12 19 25 25 28 25 30 30 27 26
48 48 50 48 47 45 44 17 17 21 20 20 21 22 21 19 18 16 15 15 17 17 22 19 20 20 18 16 19 15 12 8 11 7 15 13 10 15 19 23 28 30 32 31 30 27 29
49 50 50 50 48 47 45 22 17 17 20 18 18 20 19 17 17 14 13 14 16 16 18 18 18 18 18 18 18 16 15 18 18 9 7 3 16 18 16 20 25 31 34 34 31 26 26
47 49 50 48 49 47 46 45 22 16 21 17 17 17 17 15 16 13 12 12 15 16 17 18 17 16 16 16 17 15 16 17 16 15 11 5 17 18 19 19 19 27 27 29 28 27 35
46 50 50 51 48 47 46 44 25 16 20 16 15 14 13 12 16 13 13 12 14 16 17 16 16 15 15 17 16 15 14 15 14 13 8 4 12 14 17 19 20 25 21 27 27 29 29
49 49 51 50 49 47 47 45 40 20 13 12 13 11 9 13 14 13 11 12 14 15 15 16 15 15 15 14 13 13 12 12 11 12 10 9 17 18 18 19 19 16 18 19 24 28 37
50 49 52 50 51 48 46 46 43 18 14 12 11 9 6 11 14 9 9 11 14 13 15 15 15 15 15 15 15 13 12 9 9 9 5 6 6 20 19 22 19 19 20 29 36 37 37
47 49 52 52 50 49 48 45 40 20 12 11 10 4 9 14 9 6 9 13 13 13 13 14 15 14 15 16 14 13 14 11 6 6 7 3 6 5 18 23 22 22 24 24 37 41 33
41 46 51 53 51 49 47 45 38 20 12 11 7 10 8 11 7 7 9 12 13 11 13 14 15 14 14 12 14 14 12 11 10 8 5 5 3 16 20 19 19 24 30 23 26 26 34
34 35 52 52 50 49 48 46 40 27 12 8 12 10 8 6 8 9 10 14 13 11 13 13 14 13 14 13 14 14 14 11 12 7 5 5 1 1 19 22 23 23 17 26 27 33 38
30 29 50 48 48 47 46 46 43 28 16 13 11 17 8 6 10 10 11 15 13 10 11 12 12 14 12 14 11 13 14 12 9 12 5 5 1 2 12 22 27 28 28 25 24 27 31
25 29 47 45 46 46 46 44 43 26 17 14 16 23 6 9 13 11 13 14 14 10 10 11 12 11 12 13 14 12 13 15 14 12 10 5 5 2 15 23 27 33 32 28 31 30 28
20 47 46 45 45 45 46 43 42 27 23 15 17 16 11 16 19 17 16 16 12 10 10 11 11 10 12 14 15 14 15 15 17 14 13 10 7 4 4 17 28 33 31 29 27 28 34
14 40 41 42 43 43 44 41 35 26 25 17 18 25 18 23 23 19 10 10 11 9 12 11 11 12 12 12 9 13 14 15 15 14 11 7 4 3 5 11 24 34 22 25 26 34 34
38 37 38 39 42 43 45 44 32 29 31 22 23 27 19 28 35 23 13 6 9 12 11 11 13 11 12 13 14 12 14 15 15 15 13 8 5 2 5 31 30 30 30 26 19 27 32
33 35 35 33 34 36 35 42 29 30 28 24 26 24 20 20 22 15 11 5 8 12 13 13 12 13 13 12 10 11 15 17 20 20 18 13 9 3 8 11 32 34 34 32 34 32 39
31 33 30 29 30 36 34 39 32 30 28 26 17 19 19 21 16 3 11 5 8 11 17 15 12 13 11 11 12 12 12 14 16 20 19 16 15 13 10 9 4 26 35 34 30 28 30
31 30 28 28 30 31 27 35 33 33 28 20 25 18 18 23 21 13 7 10 8 12 14 15 14 14 14 14 13 14 14 14 16 17 16 18 17 15 14 11 8 19 23 24 30 31 36
30 30 30 29 26 29 29 30 31 32 27 23 23 23 21 22 24 15 6 9 10 15 17 15 13 15 14 16 17 18 19 20 23 21 16 16 17 16 15 12 8 9 17 18 20 25 25
32 31 30 30 28 28 32 24 30 31 26 22 24 20 19 19 23 18 11 9 12 14 17 16 15 15 16 17 17 19 20 20 23 23 21 17 16 15 12 10 9 9 21 19 14 22 20
33 31 30 30 29 27 38 31 36 31 30 20 22 19 21 22 18 19 18 9 11 14 16 14 13 15 16 16 17 17 18 18 21 21 21 19 16 14 11 9 7 19 23 19 13 20 21
36 33 31 31 32 29 39 27 29 31 31 23 19 19 23 22 18 19 18 14 12 12 14 13 15 14 15 15 15 16 16 17 18 18 19 19 19 17 14 11 7 23 19 15 23 25 23
39 36 33 33 32 29 35 30 29 30 27 23 28 20 13 15 17 13 10 13 15 12 13 13 12 14 14 16 15 15 15 15 17 19 14 18 15 17 13 12 9 16 18 23 24 23 24
Wind_Direction
337 337 339 338 343 334 336 341 343 346 346 348 349 353 357 1 8 12 21 28 32 35 41 45 52 51 63 63 76 262 262 255 228 236 212 224 219 218 217 213 216 215 226 219 223 225 229
332 333 333 333 333 337 329 334 339 342 345 346 348 351 357 2 8 16 27 33 40 43 52 57 60 59 68 68 166 264 241 225 222 215 219 220 223 236 225 221 210 217 227 223 223 227 234
331 326 328 329 329 328 332 326 334 339 341 345 347 350 355 1 10 20 35 43 50 55 64 67 69 70 73 75 219 239 237 218 204 180 198 229 233 234 232 218 224 219 226 233 227 229 235
330 323 320 320 325 321 326 323 326 334 340 342 342 349 354 1 10 23 49 57 61 67 75 77 78 81 78 103 229 254 247 206 179 186 167 193 226 237 229 224 226 223 234 229 228 233 241
323 318 318 316 316 320 317 326 317 327 334 339 340 345 354 2 10 24 59 79 75 81 86 89 81 84 76 95 175 238 208 190 197 190 174 160 221 235 228 216 218 227 226 229 228 239 245
317 314 312 312 311 310 312 317 318 317 328 333 338 342 349 359 8 20 62 106 90 78 83 88 83 80 80 85 133 233 243 219 215 233 192 185 223 222 227 222 221 223 227 235 232 239 242
315 312 307 307 306 307 305 309 313 309 319 327 329 336 345 354 1 13 29 57 56 64 71 71 77 83 88 107 123 179 268 230 228 239 259 267 262 237 231 230 233 231 233 230 233 244 242
314 309 303 303 302 303 304 299 307 303 313 323 327 330 338 352 357 13 33 50 60 78 65 82 82 86 96 103 98 118 280 245 280 320 256 264 274 270 258 246 238 235 235 240 243 249 250
313 308 303 296 297 295 292 283 295 299 304 316 324 326 332 349 353 18 41 57 64 77 70 76 84 87 92 94 95 104 129 137 116 92 321 113 275 269 271 256 245 240 238 240 245 245 255
315 305 301 297 292 291 291 293 290 291 294 306 316 326 324 347 341 20 41 61 58 68 63 69 81 89 96 94 92 113 126 122 124 121 98 75 279 272 266 259 257 244 249 241 242 242 244
315 306 298 291 289 289 283 283 279 289 286 297 308 322 325 342 328 357 12 49 53 59 52 72 81 91 97 90 96 94 120 119 114 116 87 130 288 281 273 268 269 253 262 244 246 245 248
311 307 300 290 285 286 279 273 268 278 275 291 300 315 326 320 325 338 21 25 43 53 56 70 81 85 83 92 90 90 97 107 121 127 119 122 284 279 272 273 273 273 263 257 251 248 246
309 307 297 290 280 278 276 274 273 266 270 278 293 302 328 323 313 1 22 25 24 57 65 72 76 84 82 81 78 85 84 90 88 81 113 132 163 276 272 261 268 262 254 246 243 244 250
310 305 294 286 275 273 271 266 273 255 255 267 284 288 306 305 335 358 315 335 21 59 75 80 81 84 70 73 70 74 63 61 109 102 67 90 173 235 270 260 259 255 249 256 244 244 251
309 304 295 282 270 268 266 260 269 249 245 248 264 278 306 297 313 312 315 345 358 61 73 77 71 64 65 70 62 61 56 57 66 116 75 91 155 286 269 268 259 259 253 263 262 265 257
305 305 289 273 263 262 260 250 253 241 223 219 246 268 295 299 289 294 316 323 342 41 60 67 50 67 55 60 57 57 50 63 57 97 116 59 333 176 270 263 262 264 262 256 259 254 255
301 302 272 264 257 258 251 247 252 232 218 195 248 254 283 284 274 293 315 311 331 35 52 54 52 49 57 49 55 48 45 50 49 41 101 61 17 131 287 262 254 256 258 261 266 265 262
296 290 265 260 254 252 246 244 251 214 191 205 242 243 261 257 266 294 300 307 320 22 56 53 52 59 54 53 43 47 40 41 45 49 39 44 31 262 203 273 266 256 255 254 256 259 261
293 268 263 254 250 249 240 240 238 206 187 212 235 250 262 255 256 271 290 297 335 18 72 66 67 78 64 46 42 47 48 55 47 46 46 55 59 30 156 286 267 259 256 257 259 264 255
269 264 257 251 247 241 237 236 218 192 186 220 236 233 253 248 252 259 302 326 347 52 38 57 59 63 55 42 54 43 43 46 45 35 33 52 53 164 96 321 275 250 263 255 253 254 255
264 258 257 247 242 237 240 229 211 189 172 224 235 233 246 233 218 199 282 2 34 25 37 56 44 60 56 45 41 43 37 31 32 30 39 46 21 154 194 253 264 253 256 257 243 253 254
261 261 252 246 242 239 227 213 188 192 184 229 230 234 239 245 238 146 282 23 43 20 27 35 43 51 54 46 49 37 36 36 39 40 40 47 37 88 197 247 255 255 253 252 252 257 254
258 255 250 244 246 239 230 213 203 189 197 224 242 241 235 233 237 211 274 0 55 31 357 27 51 47 51 53 58 60 55 52 46 34 37 46 56 70 125 139 259 273 263 253 262 264 263
257 251 245 247 245 234 234 187 181 180 196 230 229 235 232 230 230 251 289 305 26 8 23 31 52 46 57 57 58 57 59 60 53 49 56 56 68 84 83 126 124 298 289 264 257 263 256
252 247 245 248 249 231 238 205 184 188 196 232 229 231 231 234 229 249 293 311 343 339 2 26 59 54 58 56 54 53 49 48 44 50 64 74 75 77 72 95 120 33 307 285 271 273 280
251 246 248 245 246 238 218 193 184 194 205 228 228 236 235 232 231 243 272 310 333 344 356 25 47 49 55 55 53 48 43 48 43 46 61 76 78 71 74 74 80 97 304 295 298 280 301
245 242 247 243 240 242 217 205 202 196 210 227 230 238 234 228 241 239 256 321 338 344 4 43 63 51 51 53 53 51 51 55 45 46 50 57 59 54 65 68 100 319 296 295 310 290 296
240 240 242 239 236 239 212 205 195 200 213 226 229 234 228 230 238 242 245 288 338 13 16 58 47 56 52 52 57 57 56 58 50 54 54 53 51 51 62 55 57 305 303 312 293 289 297
237 237 239 238 236 241 213 206 198 201 207 222 219 219 228 236 240 257 290 295 290 59 48 69 70 59 61 54 58 59 58 57 52 45 63 48 59 49 61 54 87 341 311 299 301 299 299